Location: L�dingen
(68.4070°N, 15.9920°E)
Time: 16:19:27
(UTC+02:00)

Envisat - Visible Passes

Search period start: 19 October 2019 00:00
Search period end: 28 October 2019 23:00
Orbit: 764 x 766 km, 98.1° (Epoch: 19 October)

Date Brightness Start Highest point End Pass type
(mag) Time Alt. Az. Time Alt. Az. Time Alt. Az.
19 Oct 5.4 07:05:52 10° NNE 07:10:18 29° E 07:14:44 10° SSE visible
19 Oct 3.5 18:34:36 10° S 18:39:41 67° WSW 18:44:47 10° NNW visible
19 Oct 5.5 20:15:35 10° SW 20:19:38 23° W 20:23:42 10° NNW visible
20 Oct 5.9 06:29:17 10° NNE 06:33:01 20° E 06:36:43 10° SE visible
20 Oct 3.0 17:57:43 10° SSE 18:02:49 85° ENE 18:07:58 10° NNW visible
20 Oct 4.8 19:37:46 10° SSW 19:42:24 34° W 19:47:04 10° NNW visible
20 Oct 6.2 21:21:09 10° W 21:23:03 12° WNW 21:24:57 10° NW visible
21 Oct 6.2 05:53:05 10° NE 05:55:34 13° ENE 05:58:02 10° E visible
21 Oct 4.0 19:00:22 10° S 19:05:19 51° W 19:10:19 10° NNW visible
21 Oct 5.9 20:42:08 10° WSW 20:45:33 18° WNW 20:49:00 10° NW visible
22 Oct 5.5 06:54:38 10° NNE 06:58:54 26° E 07:03:09 10° SE visible
22 Oct 3.3 18:23:16 10° SSE 18:28:22 75° WSW 18:33:31 10° NNW visible
22 Oct 5.3 20:03:58 10° SW 20:08:13 26° W 20:12:30 10° NNW visible
23 Oct 6.0 06:18:08 10° NE 06:21:34 18° ENE 06:24:59 10° ESE visible
23 Oct 3.0 17:46:28 10° SSE 17:51:33 77° ENE 17:56:40 10° NNW visible
23 Oct 4.6 19:26:17 10° SSW 19:31:02 38° W 19:35:49 10° NNW visible
23 Oct 6.1 21:09:04 10° W 21:11:33 13° WNW 21:14:03 10° NW visible
24 Oct 6.3 05:42:11 10° NE 05:44:04 12° ENE 05:45:57 10° E visible
24 Oct 5.0 07:20:04 10° NNE 07:24:43 34° E 07:29:21 10° SSE visible
24 Oct 3.8 18:48:58 10° S 18:53:59 57° WSW 18:59:02 10° NNW visible
24 Oct 5.7 20:30:23 10° SW 20:34:07 20° W 20:37:50 10° NNW visible
25 Oct 5.7 06:43:25 10° NNE 06:47:29 23° E 06:51:32 10° SE visible
25 Oct 3.1 18:11:58 10° SSE 18:17:04 84° WSW 18:22:13 10° NNW visible
25 Oct 5.1 19:52:23 10° SSW 19:56:49 29° W 20:01:16 10° NNW visible
26 Oct 6.1 06:07:01 10° NE 06:10:06 16° ENE 06:13:10 10° ESE visible
26 Oct 3.0 17:35:14 10° SE 17:40:18 69° ENE 17:45:23 10° NNW visible
26 Oct 4.3 19:14:49 10° S 19:19:40 43° W 19:24:33 10° NNW visible
26 Oct 6.0 20:57:08 10° WSW 21:00:04 15° WNW 21:03:01 10° NW visible
27 Oct 6.5 04:31:39 10° NE 04:32:33 10° ENE 04:33:28 10° ENE visible
27 Oct 5.2 06:08:49 10° NNE 06:13:19 30° E 06:17:49 10° SSE visible
27 Oct 3.5 17:37:36 10° S 17:42:40 64° WSW 17:47:45 10° NNW visible
27 Oct 5.5 19:18:42 10° SW 19:22:40 22° W 19:26:39 10° NNW visible
28 Oct 5.9 05:32:13 10° NNE 05:36:03 21° E 05:39:52 10° SE visible
28 Oct 3.0 17:00:41 10° SSE 17:05:48 88° ENE 17:10:56 10° NNW visible
28 Oct 4.8 18:40:51 10° SSW 18:45:25 33° W 18:50:02 10° NNW visible
28 Oct 6.2 20:24:30 10° W 20:26:06 11° WNW 20:27:43 10° NW visible
